TimeCST,TemperatureF,Dew PointF,Humidity,Sea Level PressureIn,VisibilityMPH,Wind Direction,Wind SpeedMPH,Gust SpeedMPH,PrecipitationIn,Events,Conditions,WindDirDegrees,DateUTC
12:53 AM,24.1,21.0,88,30.20,10.0,Calm,Calm,-,N/A,,Clear,0,2013-03-03 06:53:00
1:53 AM,25.0,21.9,88,30.19,10.0,Calm,Calm,-,N/A,,Clear,0,2013-03-03 07:53:00
3:53 AM,24.1,21.9,91,30.15,9.0,Calm,Calm,-,N/A,,Clear,0,2013-03-03 09:53:00
5:53 AM,23.0,21.0,92,30.12,9.0,Calm,Calm,-,N/A,,Clear,0,2013-03-03 11:53:00
6:53 AM,28.0,21.9,78,30.10,10.0,South,5.8,-,N/A,,Clear,170,2013-03-03 12:53:00
7:53 AM,32.0,25.0,75,30.10,10.0,SSE,5.8,-,N/A,,Clear,160,2013-03-03 13:53:00
8:53 AM,37.0,26.1,65,30.08,10.0,SSE,11.5,-,N/A,,Clear,150,2013-03-03 14:53:00
9:53 AM,45.0,25.0,46,30.04,10.0,South,13.8,20.7,N/A,,Clear,170,2013-03-03 15:53:00
10:53 AM,51.1,26.1,38,30.00,10.0,South,13.8,23.0,N/A,,Clear,170,2013-03-03 16:53:00
11:53 AM,55.9,27.0,33,29.97,10.0,South,11.5,18.4,N/A,,Clear,180,2013-03-03 17:53:00
12:53 PM,59.0,28.9,32,29.92,10.0,South,13.8,-,N/A,,Clear,170,2013-03-03 18:53:00
1:53 PM,62.1,28.9,29,29.87,10.0,South,13.8,21.9,N/A,,Clear,170,2013-03-03 19:53:00
2:53 PM,61.0,30.0,31,29.83,10.0,SSE,12.7,21.9,N/A,,Clear,160,2013-03-03 20:53:00
3:53 PM,62.1,30.0,30,29.81,10.0,SSE,13.8,20.7,N/A,,Clear,160,2013-03-03 21:53:00
4:53 PM,60.1,30.0,32,29.78,10.0,SSE,15.0,26.5,N/A,,Clear,160,2013-03-03 22:53:00
5:53 PM,57.0,30.9,37,29.78,10.0,SSE,9.2,-,N/A,,Clear,150,2013-03-03 23:53:00
6:53 PM,55.0,30.9,40,29.78,10.0,SSE,11.5,-,N/A,,Clear,150,2013-03-04 00:53:00
7:53 PM,55.0,30.9,40,29.76,10.0,SSE,10.4,20.7,N/A,,Clear,150,2013-03-04 01:53:00
8:53 PM,52.0,32.0,47,29.75,10.0,SSE,9.2,-,N/A,,Clear,150,2013-03-04 02:53:00
9:53 PM,53.1,32.0,45,29.72,10.0,SSE,15.0,21.9,N/A,,Clear,150,2013-03-04 03:53:00
10:53 PM,52.0,32.0,47,29.70,10.0,SSE,13.8,-,N/A,,Clear,150,2013-03-04 04:53:00
11:53 PM,51.1,32.0,48,29.66,10.0,SSE,12.7,-,N/A,,Clear,160,2013-03-04 05:53:00